www.pogodaiklimat.ru

Погода и климат >> Архив погоды >> Ирак >> Diwaniya


ПОГОДА в Diwaniya

  • Прогноз погоды в Diwaniya
  • Монитор погоды в Diwaniya
  • Климат города

АРХИВ ПОГОДЫ в Diwaniya

Время (UTC), дата Ветер
(напр.,м/с)
 
Видим.   Явления Облачность Т
(С)
Тd
(С)
f
(%)
Тe
(С)
Тes
(С)
Комфортность P
(гПа)
Po
(гПа)
Тmin
(С)
Tmax
(С)
R
(мм)
R24
(мм)
S
(см)
21 10.10 штиль 0 10 км ясно +25.0 +13.6 49 +27 +27 жарко 1011.0 1011.0
00 11.10 СЗ 2 10 км ясно +24.8 +12.3 46 +27 +27 жарко 1011.0 1011.0
03 11.10 штиль 0 10 км ясно +23.7 +13.0 51 +26 +26 жарко 1012.2 1012.0
06 11.10 СЗ 3 10 км ясно +26.4 +11.8 40 +28 +32 жарко 1013.6 1014.0 +23.0
12 11.10 С 4 10 км ясно +33.8 +12.5 28 +34 +38 очень
жарко
1012.6 1013.0
15 11.10 СЗ 2 10 км ясно +30.4 +12.9 34 +31 +31 жарко 1013.0 1013.0
18 11.10 СЗ 2 10 км ясно +25.4 +13.7 48 +28 +28 жарко 1014.3 1014.0 +34.5
21 11.10 СЗ 2 10 км ясно +23.0 +12.5 52 +26 +26 жарко 1014.5 1015.0
00 12.10 С 2 10 км ясно +21.6 +11.5 53 +24 +24 комфорт 1014.6 1015.0
03 12.10 С 2 10 км ясно +20.6 +10.7 53 +23 +23 комфорт 1014.6 1015.0
06 12.10 СЗ 2 10 км ясно +26.0 +13.2 45 +28 +33 жарко 1015.9 1016.0 +20.0
09 12.10 СЗ 2 10 км ясно +31.6 +12.1 30 1015.4 1015.0
12 12.10 СЗ 2 10 км ясно +33.0 +10.6 25 +32 +38 жарко 1014.5 1015.0
15 12.10 С 2 10 км ясно +30.2 +11.9 32 +31 +31 жарко 1013.9 1014.0
18 12.10 штиль 0 10 км ясно +25.4 +13.9 49 +28 +28 жарко 1014.6 1015.0 +35.0
00 13.10 штиль 0 10 км ясно +23.6 +9.2 40 +24 +24 комфорт 1013.5 1014.0
03 13.10 штиль 0 10 км ясно +21.0 +11.0 53 +23 +23 комфорт 1013.9 1014.0
06 13.10 штиль 0 10 км ясно +25.0 +13.0 47 +27 +34 жарко 1014.3 1014.0 +20.0
09 13.10 С 1 10 км ясно +33.0 +9.3 23 +32 +46 жарко 1013.5 1014.0
12 13.10 С 1 10 км ясно +35.8 +12.0 24 +36 +42 очень
жарко
1011.5 1012.0
15 13.10 С 1 10 км ясно +32.0 +15.0 36 +34 +34 душно 1011.4 1011.0
18 13.10 СЗ 2 10 км ясно +27.0 +10.2 35 +28 +28 жарко 1012.3 1012.0 +36.5
21 13.10 С 3 10 км ясно +25.4 +8.8 35 +26 +26 жарко 1011.4 1011.0
00 14.10 С 3 10 км ясно +24.4 +8.3 36 +25 +25 комфорт 1013.3 1013.0
03 14.10 С 2 10 км ясно +22.2 +8.6 42 +24 +24 комфорт 1011.8 1012.0
09 14.10 С 2 10 км ясно +35.0 +9.8 22 +34 +46 очень
жарко
1012.0 1012.0
12 14.10 С 1 10 км ясно +36.6 +12.6 24 +37 +43 очень
жарко
1009.7 1010.0
15 14.10 СЗ 1 10 км ясно +33.5 +16.1 35 +36 +36 очень
душно
1010.2 1010.0
18 14.10 С 1 10 км ясно +27.6 +14.1 44 +30 +30 жарко 1010.9 1011.0 +37.5
00 15.10 ЮВ 1 10 км ясно +25.0 +6.8 31 +25 +25 комфорт 1009.9 1010.0
03 15.10 Ю 1 10 км ясно +22.8 +4.6 31 +23 +23 комфорт 1010.4 1010.0
06 15.10 штиль 0 10 км ясно +27.0 +8.7 32 +27 +34 жарко 1011.0 1011.0 +21.5
15 15.10 З 2 10 км ясно +31.7 +10.8 28 +32 +32 жарко 1010.2 1010.0
18 15.10 СЗ 2 10 км ясно +27.2 +12.4 40 +29 +29 жарко 1011.2 1011.0 +38.0
21 15.10 СЗ 2 10 км ясно +24.0 +11.6 46 +26 +26 жарко 1011.9 1012.0
00 16.10 штиль 0 10 км ясно +20.0 +11.9 60 +21 +21 комфорт 1011.7 1012.0
03 16.10 штиль 0 10 км ясно +19.0 +10.0 56 +20 +20 1012.4 1012.0
06 16.10 З 2 10 км ясно +24.6 +9.9 39 +25 +31 комфорт 1014.5 1015.0 +18.5
09 16.10 З 3 10 км ясно +33.0 +11.9 28 +33 +43 жарко 1013.4 1013.0
12 16.10 С 3 10 км ясно +34.0 +9.7 23 +33 +37 жарко 1011.9 1012.0
15 16.10 СЗ 2 10 км ясно +30.8 +12.6 33 +32 +32 жарко 1011.5 1012.0
18 16.10 С 2 10 км ясно +26.2 +12.8 43 +28 +28 жарко 1012.4 1012.0 +35.5
21 16.10 С 2 10 км ясно +24.8 +10.9 42 +26 +26 жарко 1012.8 1013.0
00 17.10 С 2 10 км ясно +23.2 +7.5 36 +24 +24 комфорт 1013.1 1013.0
03 17.10 С 2 10 км ясно +21.0 +7.4 41 +23 +23 комфорт 1012.7 1013.0
06 17.10 В 2 10 км ясно +26.0 +10.9 39 +27 +32 жарко 1014.3 1014.0 +20.5
09 17.10 В 2 10 км ясно +31.8 +9.1 25 +31 +43 жарко 1013.7 1014.0
12 17.10 В 2 10 км ясно +32.0 +9.8 25 +31 +36 жарко 1013.0 1013.0

 

Местоположение метеостанции Diwaniya (Ирак): широта 31.98 долгота 44.98 высота над уровнем моря 20 м.

В архиве по умолчанию представлена погода в Diwaniya за последнюю неделю. Архивные данные за месяц целиком и за предыдущие месяцы, начиная с января 2011 года, Вы можете получить, выбрав интересующий диапазон дат из раскрывающегося списка и нажав кнопку "Ввод!".

Внимание! Время в таблицах - всемирное. Для получения местного времени необходимо прибавить поправку, которая в Diwaniya равна 3 ч.

Смотрите также архив погоды в соседних городах и на ближайших метеорологических станциях:

Погода в Najaf (Ирак) (62 км)
Погода в Hella (Ирак) (72 км)
Погода в Samawah (Ирак) (80 км)
Погода в Ubaydah Bin Al Jarrah (Ирак) (92 км)
Погода в Kut-Al-Hai (Ирак) (103 км)
Погода в Azizyah (Ирак) (105 км)
Погода в Rifai (Ирак) (110 км)
Погода в Karbalaa (Ирак) (115 км)
Погода в Badrah (Ирак) (154 км)
Погода в Nasiriya (Ирак) (155 км)

Пояснения к столбцам:

Ветер - указаны скорость ветра в м/с - средняя за 10 мин, порывы в срок и между сроками (в фигурных скобках) и направление, откуда дует ветер: С - северный, СВ - северо-восточный, В - восточный, ЮВ - юго-восточный, Ю - южный, ЮЗ - юго-западный, З - западный, СЗ - северо-западный.
Видимость - горизонтальная дальность видимости в метрах или километрах. При видимости от 1 до 10 км при отсутствии осадков обычно наблюдается дымка, при ухудшении видимости до 1 км и менее - туман. В сухую погоду видимость может ухудшаться дымом, пылью или мглою.
Явления - указаны атмосферные явления, наблюдавшиеся в срок или в последний час перед сроком; фигурными скобками обозначены явления, наблюдавшиеся между сроками (за 1-3 часа до срока); квадратными скобками обозначены град или гололедные отложения с указанием их диаметра в мм.
Облачность - указаны через наклонную черту общая и нижняя облачность в баллах и высота нижней границы облаков в метрах; квадратными скобками обозначены формы облаков: Ci - перистые, Cs - перисто-слоистые, Cc - перисто-кучевые, Ac - высококучевые, As - высокослоистые, Sc - слоисто-кучевые, Ns - слоисто-дождевые, Cu - кучевые, Cb - кучево-дождевые. Подробнее классификацию облаков см. в Атласе облаков (PDF).
T - Температура воздуха - температура, измеренная на высоте 2 м над землей.
Td - Температура точки росы - температура, при понижении до которой содержащийся в воздухе водяной пар достигнет насыщения.
f - Относительная влажность воздуха - влажноcть воздуха, измеренная на высоте 2 м над землей.
Te - Эффективная температура - температура, которую ощущает одетый по сезону человек в тени. Характеристика душности погоды. При расчете учитывается влияние влажности воздуха и скорости ветра на теплоощущения человека.
Tes - Эффективная температура на солнце - температура, которую ощущает человек, с поправкой на солнечный нагрев. Характеристика знойности погоды. Зависит от высоты солнца над горизонтом, облачности и скорости ветра. Ночью, в пасмурную погоду, а также при ветре 12 м/с и более поправка равна нулю.
P - Атмосферное давление - приведенное к уровню моря атмосферное давление.
Po - Атмосферное давление - измеренное на уровне метеостанции атмосферное давление.
Tmin - Минимальная температура - минимум температуры воздуха на высоте 2 м над землей.
Tmax - Максимальная температура - максимум температуры воздуха на высоте 2 м над землей.
R - Количество осадков - Количество выпавших осадков за период времени, мм. При наведении курсора мыши на число - период времени, за который выпало указанное количество осадков.
R24 - Количество осадков - Количество выпавших осадков за 24 часа, мм.
S - Снежный покров - Высота снежного покрова, см. При наведении курсора мыши на число - состояние снежного покрова и степень покрытия местности в баллах.